Home > Weather > Bytom > Past weeks

Flag for Poland Past Weather in Bytom, Poland — Yesterday and Last 2 Weeks

Now
63 °F

Fog.


Feels Like: 63 °F
Forecast: 59 / 82 °F
Wind: 5 mph from East

Location: Katowice Airport

Current Time: Jul 31, 2016 at 12:50:49 AM

Latest Report: Jul 31, 2016 at 12:30 AM


Visibility: 2 mi

Pressure: 29.95 "Hg

Humidity: 100%

Dew Point: 63 °F

Location of BytomLocation

Past Weather in Bytom — Graph

°F

Bytom Temperature Yesterday

Maximum temperature yesterday: 79 °F (at 1:30 PM)
Minimum temperature yesterday: 54 °F (at 4:00 AM)
Average temperature yesterday: 67 °F

High & Low Weather Summary for the Past Weeks

 TemperatureHumidityPressure
High82 °F (Jul 27, 5:30 PM)100% (Jul 16, 1:30 AM)30.21 "Hg (Jul 16, 1:30 AM)
Low46 °F (Jul 21, 4:00 AM)36% (Jul 22, 6:30 PM)29.92 "Hg (Jul 27, 7:00 PM)
Average65 °F80%30.04 "Hg
* Reported Jul 15 11:00 PM — Jul 30 11:30 PM, Bytom, Weather by CustomWeather, © 2016

Note: Actual official high and low records may vary slightly from our data, if they occured in-between our weather recording intervals... More about our weather records

Advertising

Bytom Weather History for the Previous 24 Hours

Scroll right to see more
 ConditionsComfort  
Time TempWeatherWind HumidityBarometerVisibility
11:30 PM
Sat, Jul 30
64 °FMild.2 mph94%29.92 "Hg3 mi
11:00 PM66 °FPassing clouds.3 mph94%29.92 "HgN/A
10:30 PM66 °FClear.5 mph94%29.92 "Hg10 mi
10:00 PM66 °FClear.5 mph94%29.92 "Hg10 mi
9:30 PM66 °FClear.5 mph94%29.95 "Hg10 mi
9:00 PM68 °FSunny.6 mph94%29.92 "Hg10 mi
8:30 PM68 °FPassing clouds.6 mph94%29.92 "HgN/A
8:00 PM72 °FSunny.6 mph88%29.92 "Hg10 mi
7:30 PM73 °FPassing clouds.3 mph83%29.92 "HgN/A
7:00 PM77 °FSunny.1 mph69%29.92 "Hg10 mi
6:30 PM73 °FPassing clouds.5 mph74%29.92 "HgN/A
6:00 PM72 °FPassing clouds.2 mph83%29.92 "HgN/A
5:30 PM70 °FPassing clouds.8 mph88%29.92 "HgN/A
5:00 PM70 °FScattered clouds.7 mph88%29.92 "HgN/A
4:30 PM64 °FThundershowers. Partly sunny.9 mph100%29.92 "HgN/A
4:00 PM66 °FStrong thunderstorms. Broken clouds.15 mph94%29.95 "Hg0 mi
3:30 PM77 °FSprinkles. Broken clouds.12 mph54%29.92 "HgN/A
3:00 PM79 °FPassing clouds.15 mph51%29.92 "HgN/A
2:30 PM79 °FScattered clouds.14 mph51%29.92 "HgN/A
2:00 PM79 °FScattered clouds.21 mph51%29.95 "HgN/A
1:30 PM79 °FScattered clouds.17 mph54%29.95 "HgN/A
1:00 PM77 °FScattered clouds.10 mph54%29.95 "HgN/A
12:30 PM77 °FPassing clouds.13 mph54%29.95 "HgN/A
12:00 PM77 °FScattered clouds.12 mph54%29.95 "HgN/A
11:30 AM77 °FPassing clouds.9 mph54%29.95 "HgN/A
11:00 AM75 °FPassing clouds.10 mph61%29.95 "HgN/A
10:30 AM75 °FPassing clouds.13 mph61%29.98 "HgN/A
10:00 AM73 °FPassing clouds.10 mph69%29.98 "HgN/A
9:30 AM73 °FPassing clouds.8 mph65%29.98 "HgN/A
9:00 AM72 °FPassing clouds.8 mph73%29.98 "HgN/A
8:30 AM68 °FPassing clouds.8 mph78%29.98 "HgN/A
8:00 AM68 °FSunny.2 mph83%29.98 "Hg10 mi
7:30 AM64 °FPassing clouds.7 mph88%29.98 "HgN/A
7:00 AM63 °FPassing clouds.5 mph88%29.98 "Hg5 mi
6:30 AM61 °FPassing clouds.5 mph94%29.98 "HgN/A
6:00 AM57 °FFog.3 mph94%29.98 "Hg4 mi
5:30 AM55 °FFog.2 mph100%29.95 "Hg2 mi
5:00 AM55 °FFog.2 mph100%29.95 "Hg1 mi
4:30 AM55 °FFog.2 mph94%29.95 "Hg2 mi
4:00 AM54 °FFog.1 mph100%29.95 "Hg1 mi
3:30 AM55 °FCool.1 mph94%29.95 "Hg4 mi
3:00 AM55 °FCool.2 mph100%29.95 "Hg1 mi
2:30 AM55 °FCool.1 mph100%29.95 "Hg1 mi
2:00 AM55 °FCool.1 mph100%29.95 "Hg1 mi
1:30 AM57 °FCool.1 mph100%29.95 "Hg3 mi
1:00 AM57 °FCool.No wind100%29.95 "Hg5 mi
12:30 AM59 °FFog.2 mph94%29.95 "HgN/A
12:00 AM59 °FFog.1 mph100%29.95 "HgN/A
Weather by CustomWeather, © 2016

See weather overviewHow to use our weather pages